Content
SEND FEEDBACK

Daily
Averages
Monthly
Summary
United States of America

SIOUX FALLS, SOUTH DAKOTA


Home > North America > United States > South Dakota
Elevation: 1418 feet     Latitude: 43 34N     Longitude: 096 44W

WEATHER
 
SELECT A DAY
Number of Records: 202,979;   Date Range: 1/1/95 - 7/27/14
 
SHARE

PRINT THIS DATA

[ ← Previous Day ]
WEATHER ALMANAC - JANUARY 14, 2013
[ Next Day → ]
[ °C ]   °F
Weather ElementAverageHighLow
Temperature12.8 °F23 °F (3:56 pm)3.9 °F (7:56 am)
Dewpoint6.7 °F12 °F (4:56 pm)1 °F (5:56 am)
Humidity77.3 %92 % (1:05 am)60 % (3:56 pm)
Barometer30.36 in30.47 in (8:56 am)30.24 in (12:37 am)
Wind Speed3.9 mph11.5 mph (4:56 pm)
Weather ElementAverage
Visibility9.8 mi
Wind DirectionSSE (156.7 °)

Weather ElementTotal
Precipitation---
Heating Degree Days51.6 (Base 65)
Averaged from 27 records on January 14, 2013
WEATHER CONDITIONS BREAKOUT
WIND DIRECTION BREAKOUT
WEATHER BY HOUR - JANUARY 14, 2013
[ °C ]   °F
Local TimeTemperatureDewpointHumidityBarometerVisibilityWind DirectionWind SpeedGust SpeedPrecipitationEventsConditions
12:37 AM8.6 °F5.0 °F85 %30.24 in9.0 miCalm0.00 inSnowLight Snow
12:56 AM9.0 °F5.0 °F84 %30.32 in9.0 miCalm0.00 inSnowLight Snow
1:05 AM8.6 °F6.8 °F92 %30.24 in9.0 miSW (230°)3.5 mph0.00 inSnowLight Snow
1:56 AM10.9 °F7.0 °F84 %30.34 in9.0 miWest (280°)3.5 mph0.00 inSnowLight Snow
2:24 AM10.4 °F6.8 °F85 %30.26 in9.0 miWest (260°)3.5 mph0.00 inSnowLight Snow
2:56 AM9.0 °F5.0 °F84 %30.36 in9.0 miCalm0.00 inPartly Cloudy
3:56 AM6.1 °F3.0 °F87 %30.38 in10.0 miWest (270°)3.5 mphClear
4:56 AM5.0 °F1.9 °F87 %30.39 in10.0 miCalmClear
5:56 AM5.0 °F1.0 °F84 %30.40 in10.0 miWNW (290°)3.5 mphClear
6:56 AM5.0 °F1.0 °F84 %30.43 in10.0 miCalmScattered Clouds
7:56 AM3.9 °F1.0 °F88 %30.45 in10.0 miCalmPartly Cloudy
8:56 AM8.1 °F3.9 °F83 %30.47 in10.0 miCalmMostly Cloudy
9:56 AM10.0 °F3.9 °F76 %30.47 in10.0 miCalm0.00 inPartly Cloudy
10:56 AM12.0 °F6.1 °F77 %30.47 in10.0 miSSW (200°)3.5 mphClear
11:56 AM15.1 °F7.0 °F70 %30.44 in10.0 miWSW (240°)5.8 mphClear
12:56 PM17.1 °F9.0 °F71 %30.38 in10.0 miSSW (210°)6.9 mphClear
1:56 PM19.9 °F10.0 °F65 %30.36 in10.0 miWSW (240°)5.8 mphClear
2:56 PM21.9 °F10.9 °F63 %30.35 in10.0 miSSW (200°)10.4 mphClear
3:56 PM23.0 °F10.9 °F60 %30.35 in10.0 miSSW (210°)6.9 mphClear
4:56 PM21.0 °F12.0 °F68 %30.35 in10.0 miSouth (190°)11.5 mphClear
5:56 PM19.0 °F10.9 °F71 %30.35 in10.0 miSouth (190°)8.1 mphClear
6:56 PM18.0 °F10.9 °F74 %30.35 in10.0 miSouth (190°)4.6 mphClear
7:56 PM18.0 °F10.9 °F74 %30.35 in10.0 miSSW (200°)5.8 mphClear
8:56 PM18.0 °F9.0 °F68 %30.33 in10.0 miSSW (200°)5.8 mphClear
9:56 PM16.0 °F8.1 °F71 %30.33 in10.0 miSSW (210°)4.6 mphClear
10:56 PM15.1 °F8.1 °F74 %30.32 in10.0 miSW (220°)3.5 mphClear
11:56 PM12.9 °F7.0 °F77 %30.32 in10.0 miSSW (200°)4.6 mphClear
Hourly data recorded from KFSD, located miles away from Sioux Falls, South Dakota







STORIES FROM OUR PARTNERS